DL2RXE-13 Weather Reports


time (UTC)temp
F
wind
direction
speed
knots
gust
knots
rain 1hr
in
rain 24hr
in
rain mn
in
humidity
%
barometer
mb
20260507090041 46 0.0 0.0 0.00 0.00 0.00 91 1013.3
20260507085042 46 0.0 0.0 0.00 0.00 0.00 91 1013.2
20260507084043 45 0.0 0.0 0.00 0.00 0.00 91 1013.0
20260507083030 45 0.0 0.0 0.00 0.00 0.00 92 1012.9
20260507082029 45 0.0 0.0 0.00 0.00 0.00 92 1012.7
20260507081029 45 0.0 0.0 0.00 0.00 0.00 92 1012.6
20260507080029 45 0.0 0.0 0.00 0.00 0.00 91 1012.5
20260507075110 45 0.0 0.0 0.00 0.00 0.00 91 1012.4
20260507074029 45 0.0 0.0 0.00 0.00 0.00 91 1012.3
20260507073030 45 0.0 0.0 0.00 0.00 0.00 91 1012.2
20260507072030 45 0.0 0.0 0.00 0.00 0.00 91 1012.0
20260507071031 45 0.0 0.0 0.00 0.00 0.00 91 1012.0
20260507070029 45 0.0 0.0 0.00 0.00 0.00 91 1011.9
20260507065029 45 0.0 0.0 0.00 0.00 0.00 91 1011.9
20260507064029 45 0.0 0.0 0.00 0.01 0.00 91 1011.9
20260507063042 44 0.0 0.0 0.00 0.01 0.00 92 1011.7
20260507062042 44 0.0 0.0 0.00 0.01 0.00 92 1011.6
20260507061047 44 0.0 0.0 0.00 0.01 0.00 93 1011.7
20260507060051 44 0.0 0.0 0.00 0.02 0.00 93 1011.4
20260507055043 44 0.0 0.0 0.00 0.04 0.00 92 1011.1
20260507054047 44 0.0 0.0 0.00 0.05 0.00 92 1011.0
20260507053048 44 0.0 0.0 0.00 0.06 0.00 92 1011.0
20260507052032 44 0.0 0.0 0.00 0.07 0.00 92 1011.0
20260507051030 44 0.0 0.0 0.00 0.07 0.00 93 1010.9
20260507050052 44 0.0 0.0 0.00 0.08 0.00 93 1010.9
20260507045029 44 0.0 0.0 0.00 0.08 0.00 93 1010.8
20260507044051 44 0.0 0.0 0.00 0.09 0.00 94 1010.8
20260507043030 44 0.0 0.0 0.00 0.10 0.00 94 1010.7
20260507042031 44 0.0 0.0 0.00 0.10 0.00 95 1010.6
20260507041029 44 0.0 0.0 0.00 0.11 0.00 95 1010.4
20260507040029 44 0.0 0.0 0.00 0.11 0.00 95 1010.3
20260507035050 44 0.0 0.0 0.00 0.12 0.00 95 1010.4
20260507034029 44 0.0 0.0 0.00 0.12 0.00 94 1010.5
20260507033029 44 0.0 0.0 0.00 0.12 0.00 94 1010.5
20260507032030 44 0.0 0.0 0.00 0.12 0.00 94 1010.3
20260507031029 44 0.0 0.0 0.00 0.12 0.00 95 1010.3
20260507030043 44 0.0 0.0 0.00 0.12 0.00 95 1010.2
20260507025047 44 0.0 0.0 0.00 0.12 0.00 95 1010.1
20260507024102 44 0.0 0.0 0.00 0.13 0.00 96 1009.9
20260507023052 44 0.0 0.0 0.00 0.14 0.00 95 1009.8
20260507022044 44 0.0 0.0 0.00 0.15 0.00 95 1009.9
20260507021042 45 0.0 0.0 0.00 0.16 0.00 94 1009.8
20260507020031 45 0.0 0.0 0.00 0.18 0.00 94 1009.6
20260507015029 46 0.0 0.0 0.00 0.19 0.00 94 1009.5
20260507014049 46 0.0 0.0 0.00 0.21 0.00 93 1009.5
20260507013031 47 0.0 0.0 0.00 0.23 0.00 93 1009.5
20260507012029 48 0.0 0.0 0.00 0.26 0.00 92 1009.4
20260507011029 48 0.0 0.0 0.00 0.29 0.00 91 1009.2
20260507010029 48 0.0 0.0 0.00 0.34 0.00 91 1009.1
20260507005031 49 0.0 0.0 0.00 0.37 0.00 90 1009.1
20260507004029 49 0.0 0.0 0.00 0.40 0.00 91 1008.9
20260507003030 49 0.0 0.0 0.00 0.43 0.00 90 1008.8
20260507002029 49 0.0 0.0 0.00 0.47 0.00 90 1008.7
20260507001030 49 0.0 0.0 0.00 0.50 0.00 91 1008.7
20260507000111 49 0.0 0.0 0.00 0.53 0.00 91 1008.5
20260506235109 49 0.0 0.0 0.00 0.55 0.00 91 1008.8
20260506234030 49 0.0 0.0 0.00 0.57 0.00 91 1008.7
20260506233109 49 0.0 0.0 0.00 0.59 0.00 91 1008.9
20260506232109 49 0.0 0.0 0.00 0.60 0.00 91 1008.8
20260506231029 50 0.0 0.0 0.00 0.61 0.00 91 1008.8
20260506230050 50 0.0 0.0 0.00 0.63 0.00 91 1008.7
20260506225047 50 0.0 0.0 0.00 0.64 0.00 91 1008.5
20260506224047 50 0.0 0.0 0.00 0.65 0.00 91 1008.6
20260506223110 50 0.0 0.0 0.00 0.66 0.00 90 1008.6
20260506222046 50 0.0 0.0 0.00 0.67 0.00 90 1008.7
20260506221047 50 0.0 0.0 0.00 0.68 0.00 90 1008.4
20260506220052 50 0.0 0.0 0.00 0.69 0.00 90 1008.4
20260506215047 50 0.0 0.0 0.00 0.69 0.69 89 1008.4
20260506214102 50 0.0 0.0 0.00 0.70 0.69 89 1008.5
20260506213051 50 0.0 0.0 0.00 0.70 0.69 89 1008.5
20260506212042 50 0.0 0.0 0.00 0.70 0.69 89 1008.5
20260506211041 50 0.0 0.0 0.00 0.70 0.69 89 1008.3
20260506210042 50 0.0 0.0 0.00 0.70 0.69 89 1008.3
20260506205043 51 0.0 0.0 0.00 0.70 0.69 90 1008.2
20260506204048 51 0.0 0.0 0.00 0.70 0.69 90 1008.2
20260506203052 52 0.0 0.0 0.00 0.70 0.69 91 1008.2
20260506202030 52 0.0 0.0 0.00 0.70 0.69 91 1008.3
20260506201033 52 0.0 0.0 0.00 0.70 0.69 91 1008.0
20260506200029 52 0.0 0.0 0.00 0.70 0.69 91 1008.0
20260506195030 52 0.0 0.0 0.00 0.70 0.69 90 1008.0
20260506194032 52 0.0 0.0 0.00 0.70 0.69 90 1008.0
20260506193029 52 0.0 0.0 0.00 0.70 0.69 90 1007.7
20260506192029 52 0.0 0.0 0.00 0.70 0.69 90 1007.5
20260506191030 53 0.0 0.0 0.00 0.70 0.69 90 1007.5
20260506190030 53 0.0 0.0 0.00 0.70 0.69 90 1007.4
20260506185050 53 0.0 0.0 0.00 0.70 0.69 90 1007.2
20260506184029 53 0.0 0.0 0.00 0.70 0.69 91 1007.1
20260506183029 53 0.0 0.0 0.00 0.70 0.69 91 1007.1
20260506182029 53 0.0 0.0 0.00 0.70 0.69 91 1007.0
20260506181029 53 0.0 0.0 0.00 0.70 0.69 91 1006.9
20260506180048 53 0.0 0.0 0.00 0.70 0.69 91 1006.9
20260506175107 54 0.0 0.0 0.00 0.70 0.69 91 1006.8
20260506174046 54 0.0 0.0 0.00 0.70 0.69 91 1006.6
20260506173044 54 0.0 0.0 0.00 0.70 0.69 91 1006.7
20260506172042 54 0.0 0.0 0.00 0.70 0.69 91 1006.7
20260506171042 54 0.0 0.0 0.00 0.70 0.69 91 1006.6
20260506170105 54 0.0 0.0 0.00 0.70 0.69 90 1006.7
20260506165049 54 0.0 0.0 0.00 0.70 0.69 89 1006.5
20260506164046 55 0.0 0.0 0.00 0.70 0.69 88 1006.5
20260506163050 56 0.0 0.0 0.00 0.70 0.69 87 1006.4
20260506162045 56 0.0 0.0 0.00 0.70 0.69 87 1006.4
20260506161043 55 0.0 0.0 0.00 0.70 0.69 87 1006.5
20260506160044 56 0.0 0.0 0.00 0.70 0.69 87 1006.6
20260506155047 57 0.0 0.0 0.00 0.70 0.69 87 1006.7
20260506154042 56 0.0 0.0 0.00 0.70 0.69 88 1006.7
20260506153029 56 0.0 0.0 0.00 0.70 0.69 87 1006.7
20260506152029 57 0.0 0.0 0.00 0.70 0.69 86 1006.7
20260506151029 57 0.0 0.0 0.00 0.70 0.69 86 1006.7
20260506150029 57 0.0 0.0 0.00 0.70 0.69 87 1006.7
20260506145029 56 0.0 0.0 0.00 0.70 0.69 88 1006.7
20260506144049 56 0.0 0.0 0.00 0.70 0.69 88 1006.8
20260506143031 56 0.0 0.0 0.00 0.70 0.69 88 1006.9
20260506142029 56 0.0 0.0 0.00 0.70 0.69 90 1006.7
20260506141030 56 0.0 0.0 0.00 0.70 0.69 89 1006.7
20260506140029 56 0.0 0.0 0.00 0.70 0.69 90 1006.7
20260506135031 55 0.0 0.0 0.00 0.70 0.69 92 1006.8
20260506134050 55 0.0 0.0 0.00 0.70 0.69 92 1006.9
20260506133050 55 0.0 0.0 0.00 0.70 0.69 92 1006.8
20260506132030 55 0.0 0.0 0.00 0.70 0.69 91 1006.8
20260506131031 55 0.0 0.0 0.00 0.70 0.69 92 1006.9
20260506130030 55 0.0 0.0 0.00 0.70 0.69 92 1006.7
20260506125030 55 0.0 0.0 0.00 0.70 0.69 92 1006.7
20260506124030 55 0.0 0.0 0.00 0.70 0.69 92 1006.6
20260506123029 55 0.0 0.0 0.00 0.70 0.69 93 1006.7
20260506122030 55 0.0 0.0 0.00 0.70 0.69 93 1006.7
20260506121030 55 0.0 0.0 0.00 0.70 0.69 93 1006.7
20260506120043 55 0.0 0.0 0.00 0.70 0.69 94 1006.7
20260506115047 55 0.0 0.0 0.00 0.70 0.69 93 1006.7
20260506114043 55 0.0 0.0 0.00 0.70 0.69 93 1006.7
20260506113047 55 0.0 0.0 0.00 0.70 0.69 92 1006.9
20260506112102 55 0.0 0.0 0.00 0.70 0.69 92 1006.8
20260506111042 55 0.0 0.0 0.00 0.70 0.69 93 1006.5
20260506110052 55 0.0 0.0 0.00 0.70 0.69 93 1006.4
20260506105046 54 0.0 0.0 0.00 0.70 0.69 93 1006.4
20260506104042 54 0.0 0.0 0.00 0.70 0.69 94 1006.4
20260506103049 54 0.0 0.0 0.00 0.70 0.69 96 1006.1
20260506102042 54 0.0 0.0 0.00 0.70 0.69 97 1006.0
20260506101105 55 0.0 0.0 0.00 0.70 0.69 97 1006.0
20260506100042 54 0.0 0.0 0.00 0.70 0.69 98 1005.8
20260506095047 54 0.0 0.0 0.00 0.70 0.69 98 1005.9
20260506094045 54 0.0 0.0 0.00 0.70 0.69 98 1005.7
20260506093042 54 0.0 0.0 0.00 0.70 0.69 99 1005.6
20260506092043 53 0.0 0.0 0.00 0.70 0.69 99 1005.6
20260506091029 53 0.0 0.0 0.00 0.70 0.69 99 1005.4